DECAYED

STARLINK-2059, 47668 (Decayed)

Orbit data source: Space-Track

STARLINK-2059, 47668 was a payload satellite owned by SpaceX/Seattle (US) in LEO that was launched on Tue, 16 Feb 2021 UTC via an FALCON 9 launch vehicle from the Air Force Eastern Test Range (AFETR). Payload-class satellites include a variety of spacecraft equipped with specific instruments for various scientific and technological missions. These include communications satellites like Starlink; space stations such as the ISS; scientific satellites like the Hubble; Earth observation satellites from companies like Planet Labs, Umbra, and HawkEye 360; GPS; miniature CubeSats for education and research; and military/defense satellites.

Not visible in the next 10 days
Identifier
47668, 2021-012BA
Orbit
Decayed
Country
Flag of USUS
Related business
Manufacturer
SpaceX/Seattle
Mission
Decayed Commercial Communications
Bus & Motor
STARLINK, Unknown motor
Mass
260 kg wet, ~248 kg dry
Launch date (UTC)
2021-02-16 (5 years ago)
Launch vehicle
FALCON 9
Launch site
Air Force Eastern Test Range (AFETR)
Object type
Payload
Rocket body
Debris
Shape & HBR
Box + 1 Pan, 10.1 m
Radar Cross Section
13.562 m², Large (>1 m²)

Expand to show TLE details & history
Last TLE update: 8 months ago

TLE from 8 months ago
0 STARLINK-2059
1 47668U 21012BA  25113.73446902  .21781236  12511-4  36888-3 0  9994
2 47668  53.0273 355.0376 0010295 252.9290 214.6228 16.47186361232261
Epoch: 2025-04-23T17:37Z
TLE epoch observation values (Epoch: 2025-04-23T17:37:38.123Z)
Latitude
49.79729°
Longitude
-3.71382°
Altitude
157.995 km
Speed
7.814 km/s
True Right ascension
07h 30m 50s
True Declination
49° 36' 43"
Sunlit
Object was in daylight at epoch
Visualization orbit readout
Latitude
Unknown
Longitude
Unknown
Altitude
Unknown
Speed
Unknown
Apparent Right ascension
Unknown
Apparent Declination
Unknown
Sunlit
N/A
Visualization observer readout
Local Sidereal Time
03:22:38
Azimuth
Unknown
Elevation
Unknown
Doppler factor
Unknown
Orbital elements
Apogee altitude
153.764 km
Perigee altitude
140.329 km
Semi-major axis
6,525.184 km
Eccentricity
0.00103
Inclination
53.0273°
RAAN
355.0376°
Arg. of periapsis
252.929°
True anomaly
214.55584°
Mean anomaly
214.6228°
Eccentric anomaly
214.58931°
Mean motion
4.11769 °/min
Orbital period
87.43 mins
BSTAR
0.00036888
Loading maneuver chart data...
Computing Atmospheric mass density...

Documentation

Showing up to 5 results
|